This is the latest recevied weather packets stored in our database for station/object W4GAP. If no packets are shown the sender has not sent any weather packets the latest 10 day(s).
| Time | Temp. | Humidity | Pressure | Rain* | Wind** | Luminosity | Snow |
|---|---|---|---|---|---|---|---|
| 1777728938 | 13.33° C | 74% | 1009.3 hPa | 0 mm | - | 49 W/m² | - |
| 1777728635 | 13.33° C | 75% | 1009.3 hPa | 0 mm | - | 38 W/m² | - |
| 1777728332 | 13.33° C | 75% | 1009.4 hPa | 0 mm | - | 29 W/m² | - |
| 1777728029 | 13.33° C | 75% | 1009.7 hPa | 0 mm | - | 17 W/m² | - |
| 1777727726 | 12.78° C | 74% | 1009.7 hPa | 0 mm | - | 20 W/m² | - |
| 1777727423 | 12.78° C | 74% | 1009.4 hPa | 0 mm | - | 21 W/m² | - |
| 1777727120 | 12.78° C | 73% | 1009.7 hPa | 0 mm | - | 26 W/m² | - |
| 1777726818 | 13.33° C | 74% | 1009.2 hPa | 0 mm | - | 28 W/m² | - |
| 1777726514 | 12.78° C | 75% | 1009.3 hPa | 0 mm | - | 36 W/m² | - |
| 1777726211 | 12.78° C | 75% | 1008.9 hPa | 0 mm | - | 30 W/m² | - |
| 1777725908 | 12.78° C | 75% | 1008.9 hPa | 0 mm | - | 21 W/m² | - |
| 1777725606 | 12.78° C | 76% | 1009.2 hPa | 0 mm | - | 16 W/m² | - |
| 1777725303 | 12.78° C | 75% | 1009.1 hPa | 0 mm | - | 16 W/m² | - |
| 1777725000 | 12.78° C | 76% | 1009.2 hPa | 0 mm | - | 16 W/m² | - |
| 1777724696 | 12.78° C | 77% | 1009.3 hPa | 0 mm | - | 12 W/m² | - |
| 1777724394 | 12.78° C | 76% | 1009.3 hPa | 0 mm | - | 9 W/m² | - |
| 1777724091 | 12.78° C | 75% | 1009.3 hPa | 0 mm | - | 10 W/m² | - |
| 1777723789 | 12.78° C | 75% | 1009.3 hPa | 0 mm | - | 6 W/m² | - |
| 1777723484 | 12.78° C | 75% | 1009.6 hPa | 0 mm | - | 6 W/m² | - |
| 1777723182 | 12.78° C | 75% | 1009.3 hPa | 0 mm | - | 16 W/m² | - |
| 1777722879 | 12.78° C | 76% | 1008.6 hPa | 0 mm | - | 12 W/m² | - |
| 1777722575 | 12.78° C | 76% | 1008.4 hPa | 0 mm | - | 11 W/m² | - |
| 1777722272 | 12.78° C | 75% | 1008.9 hPa | 0 mm | - | 8 W/m² | - |
| 1777721969 | 12.78° C | 75% | 1008.9 hPa | 0 mm | - | 3 W/m² | - |
| 1777721667 | 12.78° C | 75% | 1009 hPa | 0 mm | - | 3 W/m² | - |
* Rain latest hour (hover to see other rain measurements)
** Current wind speed in m/s (hover to see current wind gust speed)